Location: ČR
(50.0000°N, 15.0000°E)
Time: 13:04:23
(UTC+00:00)

O/OREOS (USA 219) - Pass Details

Date: 14 December 2021
Orbit: 621 x 646 km, 72.0° (Epoch: 22 May)

Event Time Altitude Azimuth Distance (km) Brightness Sun altitude
Rises 15:49:34 0° 340° (NNW) 2,958 ? -7.8°
Reaches altitude 10° 15:52:34 10° 0° (N) 2,049 ? -8.3°
Maximum altitude 15:55:39 17° 42° (NE) 1,614 ? -8.7°
Enters shadow 15:58:42 10° 84° (E) 2,041 ? -9.2°
